Regional Weather Roundup
Issued by NWS

Home | Current Version | Previous Version | Graphics & Text | Print | Product List | Glossary On
Versions: 1 2 3 4 5 6 7 8 9 10 11 12 13 14 15 16 17 18 19 20 21 22 23 24 25 26 27
000
ASUS45 KSLC 242310
RWRUT

UTAH REGIONAL WEATHER ROUNDUP
NATIONAL WEATHER SERVICE SALT LAKE CITY UT
500 PM MDT SUN JUL 24 2016

UTZ001>011-023>025-250000-

NORTHERN UTAH

CITY           SKY/WX    TMP DP  RH WIND       PRES   REMARKS
BRIGHAM CITY     N/A     92  13   5 SW3       30.06F
HILL AFB       SUNNY     90  28  10 NW8       30.10F
LOGAN          SUNNY     93  25   8 VRB3      30.07F
OGDEN          SUNNY     92  27   9 VRB3      30.07F
PROVO AIRPORT  MOSUNNY   93  36  13 NW9       30.05F
SALT LAKE CITY MOSUNNY   96  32  10 NW10      30.04F HX  90
VERNAL         SUNNY     97  32  10 N7        30.05F HX  91
WENDOVER       SUNNY     91  28  10 E8        30.05F
HEBER CITY     SUNNY     95  21   7 SW8       30.12S

$$

UTZ012>022-026-027-250000-

SOUTHERN/CENTRAL UTAH

CITY           SKY/WX    TMP DP  RH WIND       PRES   REMARKS
BLANDING       MOSUNNY   91  36  14 N10       30.20S
BRYCE CANYON   LGT RAIN  76  33  21 W35G49    30.34S
CEDAR CITY     MOSUNNY   81  50  33 SE14      30.11F
DELTA          SUNNY     95  27   8 NW6       30.05F
MILFORD        MOSUNNY   96  28   9 CALM      30.03F HX  90
MOAB/CYNLANDS  SUNNY    102  23   6 N5        29.98F HX  95
PRICE          SUNNY     96  20   6 W18G28    30.11F
ST GEORGE      CLEAR    106  52  16 W17G23    29.88F HX 103

$$

REGIONAL REPORTS     COLORADO/ARIZONA

CITY           SKY/WX    TMP DP  RH WIND       PRES   REMARKS
CRAIG, CO      SUNNY     88  38  17 S17G24    30.16F
GRAND JUNCTION MOSUNNY   99  29   8 W6G18     30.02F HX  93
RIFLE          MOSUNNY   93  39  15 N9        30.10R
MONTROSE       SUNNY     91  36  14 N13       30.14F
CORTEZ         CLOUDY    91  38  15 N25G39    30.13S
PAGE, AZ       PTSUNNY   98  34  10 SE25G36   29.99F HX  92
GRAND CANYON   PTSUNNY   91  43  18 SW17G24   30.22F
KINGMAN        SUNNY     99  46  16 SW17G25   30.00F HX  95
FLAGSTAFF      PTSUNNY   77  43  29 CALM      30.28F

$$

REGIONAL REPORTS    NEVADA/IDAHO/WYOMING

CITY           SKY/WX    TMP DP  RH WIND       PRES   REMARKS
LAS VEGAS, NV  SUNNY    110  29   6 SW10G21   29.77F HX 102
ELY            SUNNY     92  23   8 S10G17    30.14F
ELKO           SUNNY     94  15   5 SW10      30.07F
POCATELLO, ID  SUNNY     88  25  10 W10       30.11F
BURLEY         SUNNY     86  33  15 NW7       30.06F
EVANSTON, WY   SUNNY     85  16   7 W15       30.27F
ROCK SPRINGS   SUNNY     87  14   6 W17G31    30.23F
KEMMERER         N/A    N/A N/A N/A W14G31    30.28S

$$




USA.gov is the U.S. government's official web portal to all federal, state and local government web resources and services.